sat.trackr.live / text

‹ back to catalog

STARLINK-33792

NORAD 63506 · 2025-071P

PAYLOAD ACTIVE UNKNOWN

§ Identity

Operator
Country
US
Launch date
2025-04-07
Launch site
AFWTR
Launch vehicle
Mass (kg)
RCS (m²)

Purposes: comms

External: N2YO · Heavens-Above · Gunter

§ Orbital elements

Epoch: 2026-09-20T20:38:07.796544Z

Period
93.85 min
Inclination
53.1603°
Eccentricity
0.0000913
Mean motion
15.34402108 rev/d
Perigee alt
462.1 km
Apogee alt
463.3 km
Semi-major
6,840.8 km
B*
3.0800e-4
RAAN
311.7962°
Arg perigee
86.0071°
Mean anomaly
274.1036°
Rev number
8,262

§ Raw data

STARLINK-337921 63506U 25071P   26263.85981246  .00010045  00000+0  30800-3 0  99902 63506  53.1603 311.7962 0000913  86.0071 274.1036 15.34402108 82623

JSON: /api/v1/satellites/63506 · /tle

For live sub-satellite position, see the globe view (requires WebGL).

§ Visibility from observer

Set your observer location to see the next 7 days of passes ≥ 10°. The values pass through the URL so the page stays shareable.

No JS? Fill the form by hand. The geolocation button needs JavaScript.